• In Czech Republic
  • List of Countries
  • For 7 days
  • Water Temperature
  • Satellite Maps
  • Weather Map
  • Weather Widgets
  • user-avatar
    Login

    Hourly Weather Graz

    Today, 22 July, Saturday

    Time Temperature Precipitation Wind Pressure Humidity
    00:00 +20°C° 0.1 mm 1 mps 723 mmHg 88%
    01:00 +21°C° 0 mm 1 mps 722 mmHg 89%
    02:00 +20°C° 0.2 mm 1 mps 722 mmHg 90%
    03:00 +20°C° 0.2 mm 1 mps 722 mmHg 91%
    04:00 +20°C° 0.2 mm 1 mps 722 mmHg 92%
    05:00 +21°C° 0 mm 1 mps 723 mmHg 87%
    06:00 +21°C° 0 mm 0 mps 723 mmHg 83%
    07:00 +22°C° 0 mm 0 mps 723 mmHg 77%
    08:00 +26°C° 0.4 mm 1 mps 724 mmHg 68%
    09:00 +28°C° 0.4 mm 1 mps 724 mmHg 59%
    10:00 +30°C° 0.4 mm 1 mps 724 mmHg 49%
    11:00 +31°C° 0.4 mm 1 mps 724 mmHg 48%
    12:00 +31°C° 0.4 mm 2 mps 724 mmHg 46%
    13:00 +32°C° 0.4 mm 2 mps 724 mmHg 45%
    14:00 +31°C° 0.4 mm 2 mps 724 mmHg 47%
    15:00 +31°C° 0.4 mm 1 mps 723 mmHg 50%
    16:00 +30°C° 0.4 mm 1 mps 723 mmHg 52%
    17:00 +29°C° 0.3 mm 1 mps 723 mmHg 59%
    18:00 +28°C° 0.3 mm 1 mps 723 mmHg 65%
    19:00 +26°C° 0.3 mm 1 mps 723 mmHg 71%
    20:00 +25°C° 0 mm 1 mps 723 mmHg 74%
    21:00 +24°C° 0 mm 1 mps 723 mmHg 77%
    22:00 +22°C° 0 mm 1 mps 724 mmHg 80%
    23:00 +22°C° 0 mm 1 mps 724 mmHg 81%

    Tomorrow, 23 July, Sunday

    Time Temperature Precipitation Wind Pressure Humidity
    00:00 +21°C° 0 mm 1 mps 724 mmHg 82%
    01:00 +21°C° 0 mm 1 mps 724 mmHg 84%
    02:00 +21°C° 0 mm 1 mps 724 mmHg 84%
    03:00 +20°C° 0 mm 1 mps 724 mmHg 85%
    04:00 +20°C° 0 mm 1 mps 724 mmHg 86%
    05:00 +21°C° 0.1 mm 1 mps 724 mmHg 82%
    06:00 +23°C° 0.1 mm 1 mps 724 mmHg 78%
    07:00 +24°C° 0.1 mm 1 mps 724 mmHg 74%
    08:00 +26°C° 0.5 mm 1 mps 724 mmHg 71%
    09:00 +27°C° 0.5 mm 1 mps 724 mmHg 67%
    10:00 +29°C° 0.5 mm 1 mps 724 mmHg 63%
    11:00 +29°C° 1 mm 1 mps 724 mmHg 62%
    12:00 +29°C° 1 mm 1 mps 724 mmHg 62%
    13:00 +30°C° 1 mm 1 mps 724 mmHg 61%
    14:00 +29°C° 1.6 mm 1 mps 724 mmHg 65%
    15:00 +28°C° 1.6 mm 1 mps 723 mmHg 68%
    16:00 +28°C° 1.6 mm 1 mps 723 mmHg 71%
    17:00 +26°C° 1.3 mm 1 mps 723 mmHg 75%
    18:00 +25°C° 1.3 mm 1 mps 723 mmHg 79%
    19:00 +24°C° 1.3 mm 1 mps 723 mmHg 83%
    20:00 +22°C° 0.9 mm 1 mps 723 mmHg 87%
    21:00 +21°C° 0.9 mm 1 mps 723 mmHg 90%
    22:00 +20°C° 0.9 mm 1 mps 724 mmHg 93%
    23:00 +20°C° 0.2 mm 1 mps 723 mmHg 93%

    Day after tomorrow, 24 July, Monday

    Time Temperature Precipitation Wind Pressure Humidity
    00:00 +20°C° 0.2 mm 1 mps 723 mmHg 94%
    01:00 +19°C° 0.2 mm 1 mps 723 mmHg 94%
    02:00 +19°C° 0.4 mm 1 mps 723 mmHg 94%
    03:00 +19°C° 0.4 mm 1 mps 722 mmHg 94%
    04:00 +19°C° 0.4 mm 1 mps 722 mmHg 94%
    05:00 +20°C° 1.4 mm 1 mps 722 mmHg 94%
    06:00 +20°C° 1.4 mm 1 mps 721 mmHg 94%
    07:00 +21°C° 1.4 mm 1 mps 721 mmHg 94%
    08:00 +21°C° 0.6 mm 1 mps 721 mmHg 92%
    09:00 +21°C° 0.6 mm 1 mps 721 mmHg 91%
    10:00 +22°C° 0.6 mm 1 mps 720 mmHg 90%
    11:00 +22°C° 0.5 mm 1 mps 720 mmHg 88%
    12:00 +23°C° 0.5 mm 1 mps 719 mmHg 85%
    13:00 +23°C° 0.5 mm 1 mps 719 mmHg 83%
    14:00 +23°C° 1.1 mm 1 mps 718 mmHg 84%
    15:00 +23°C° 1.1 mm 1 mps 718 mmHg 84%
    16:00 +23°C° 1.1 mm 1 mps 717 mmHg 85%
    17:00 +22°C° 1.2 mm 1 mps 717 mmHg 87%
    18:00 +21°C° 1.2 mm 1 mps 717 mmHg 90%
    19:00 +20°C° 1.2 mm 1 mps 717 mmHg 92%
    20:00 +18°C° 0.2 mm 2 mps 717 mmHg 93%
    21:00 +17°C° 0.2 mm 2 mps 717 mmHg 93%
    22:00 +17°C° 0.2 mm 2 mps 716 mmHg 94%
    23:00 +16°C° 1.8 mm 2 mps 717 mmHg 94%

    25 July, Tuesday

    Time Temperature Precipitation Wind Pressure Humidity
    00:00 +16°C° 1.8 mm 2 mps 717 mmHg 95%
    01:00 +16°C° 1.8 mm 2 mps 717 mmHg 95%
    02:00 +15°C° 0.2 mm 2 mps 717 mmHg 95%
    03:00 +15°C° 0.2 mm 2 mps 716 mmHg 95%
    04:00 +15°C° 0.2 mm 2 mps 716 mmHg 94%
    05:00 +15°C° 0.1 mm 2 mps 716 mmHg 94%
    06:00 +15°C° 0.1 mm 2 mps 716 mmHg 93%
    07:00 +15°C° 0.1 mm 2 mps 716 mmHg 92%
    08:00 +15°C° 0.7 mm 2 mps 717 mmHg 91%
    09:00 +15°C° 0.7 mm 2 mps 717 mmHg 89%
    10:00 +15°C° 0.7 mm 2 mps 717 mmHg 88%
    11:00 +16°C° 0.4 mm 2 mps 717 mmHg 88%
    12:00 +16°C° 0.4 mm 2 mps 717 mmHg 88%
    13:00 +16°C° 0.4 mm 1 mps 717 mmHg 87%
    14:00 +18°C° 0 mm 2 mps 717 mmHg 76%
    15:00 +20°C° 0 mm 2 mps 717 mmHg 64%
    16:00 +23°C° 0 mm 2 mps 717 mmHg 52%
    17:00 +20°C° 0 mm 2 mps 717 mmHg 59%
    18:00 +20°C° 0 mm 1 mps 717 mmHg 67%
    19:00 +18°C° 0 mm 1 mps 717 mmHg 74%
    20:00 +16°C° 0 mm 1 mps 717 mmHg 79%
    21:00 +15°C° 0 mm 1 mps 717 mmHg 84%
    22:00 +13°C° 0 mm 1 mps 717 mmHg 88%
    23:00 +13°C° 0 mm 1 mps 717 mmHg 89%

    26 July, Wednesday

    Time Temperature Precipitation Wind Pressure Humidity
    00:00 +13°C° 0 mm 1 mps 717 mmHg 89%
    01:00 +12°C° 0 mm 1 mps 717 mmHg 90%
    02:00 +12°C° 0 mm 1 mps 717 mmHg 90%
    03:00 +11°C° 0 mm 1 mps 717 mmHg 90%
    04:00 +11°C° 0 mm 1 mps 717 mmHg 90%
    05:00 +13°C° 0 mm 1 mps 717 mmHg 83%
    06:00 +15°C° 0 mm 1 mps 718 mmHg 77%
    07:00 +16°C° 0 mm 1 mps 718 mmHg 70%
    08:00 +20°C° 0 mm 1 mps 718 mmHg 61%
    09:00 +21°C° 0 mm 0 mps 718 mmHg 53%
    10:00 +23°C° 0 mm 0 mps 718 mmHg 45%
    11:00 +23°C° 0.1 mm 0 mps 718 mmHg 46%
    12:00 +25°C° 0.1 mm 1 mps 718 mmHg 47%
    13:00 +25°C° 0.1 mm 1 mps 718 mmHg 48%
    14:00 +25°C° 0.1 mm 1 mps 718 mmHg 50%
    15:00 +24°C° 0.1 mm 1 mps 718 mmHg 52%
    16:00 +24°C° 0.1 mm 1 mps 717 mmHg 54%
    17:00 +23°C° 0.3 mm 1 mps 718 mmHg 62%
    18:00 +21°C° 0.3 mm 1 mps 718 mmHg 69%
    19:00 +20°C° 0.3 mm 1 mps 718 mmHg 76%
    20:00 +19°C° 0.3 mm 1 mps 719 mmHg 79%
    21:00 +18°C° 0.3 mm 1 mps 719 mmHg 82%
    22:00 +16°C° 0.3 mm 1 mps 719 mmHg 85%
    23:00 +15°C° 0 mm 1 mps 719 mmHg 86%

    27 July, Thursday

    Time Temperature Precipitation Wind Pressure Humidity
    00:00 +15°C° 0 mm 1 mps 719 mmHg 87%
    01:00 +15°C° 0 mm 1 mps 719 mmHg 88%
    02:00 +15°C° 0.1 mm 1 mps 720 mmHg 88%
    03:00 +14°C° 0.1 mm 1 mps 720 mmHg 89%
    04:00 +14°C° 0.1 mm 1 mps 720 mmHg 90%
    05:00 +15°C° 0.4 mm 1 mps 720 mmHg 89%
    06:00 +15°C° 0.4 mm 1 mps 721 mmHg 88%
    07:00 +16°C° 0.4 mm 1 mps 721 mmHg 87%
    08:00 +18°C° 0.2 mm 1 mps 721 mmHg 84%
    09:00 +18°C° 0.2 mm 1 mps 722 mmHg 81%
    10:00 +19°C° 0.2 mm 1 mps 722 mmHg 77%
    11:00 +21°C° 0 mm 1 mps 722 mmHg 70%
    12:00 +23°C° 0 mm 1 mps 722 mmHg 62%
    13:00 +25°C° 0 mm 1 mps 723 mmHg 54%
    14:00 +25°C° 0 mm 1 mps 722 mmHg 53%
    15:00 +25°C° 0 mm 1 mps 722 mmHg 51%
    16:00 +26°C° 0 mm 1 mps 722 mmHg 50%
    17:00 +24°C° 0 mm 1 mps 723 mmHg 57%
    18:00 +23°C° 0 mm 1 mps 723 mmHg 65%
    19:00 +21°C° 0 mm 1 mps 723 mmHg 73%
    20:00 +20°C° 0 mm 1 mps 723 mmHg 77%
    21:00 +18°C° 0 mm 1 mps 724 mmHg 82%
    22:00 +16°C° 0 mm 1 mps 724 mmHg 86%
    23:00 +16°C° 0 mm 1 mps 724 mmHg 87%
    Show more